Latest Weather Observations for Wilcannia Airport

IDN60801

Issued at 6:05 pm EST Saturday 19 April 2014 (issued every 30 minutes, with the page automatically refreshed every 10 minutes)

About weather observations | Map of weather stations | Latest weather observations for NSW | Other Formats
Station Details ID: 046012 Name: WILCANNIA AERODROME AWS Lat: -31.52 Lon: 143.38 Height: 94.3 m
Data from the previous 72 hours. | See also: Recent months for locations in New South Wales
Date/Time
EST
Temp
°C
App
Temp
°C
Dew
Point
Rel
Hum
%
Delta-T
°C
Wind Press
QNH
hPa
Press
MSL
hPa
Rain
since 9 am
mm
Dir
 
Spd
km/h
Gust
km/h
Spd
kts
Gust
kts
19/06:00pm 17.1 13.6 3.4 40 6.3 SSW 11 13 6 7 1018.1 1017.9 0.0
19/05:30pm 19.2 14.8 2.6 33 7.7 SSW 15 19 8 10 1017.8 - 0.0
19/05:00pm 20.3 16.0 3.1 32 8.1 SSW 15 20 8 11 1017.8 1017.5 0.0
19/04:30pm 20.4 15.6 2.7 31 8.3 S 17 20 9 11 1017.8 - 0.0
19/04:00pm 20.9 16.6 3.2 31 8.4 SSW 15 22 8 12 1017.8 1017.5 0.0
19/03:30pm 20.9 15.9 3.6 32 8.3 SSW 19 26 10 14 1018.0 - 0.0
19/03:00pm 21.1 16.0 3.3 31 8.5 S 19 22 10 12 1018.2 1018.0 0.0
19/02:30pm 21.1 16.4 3.3 31 8.5 SSW 17 24 9 13 1018.3 - 0.0
19/02:00pm 20.7 17.7 3.9 33 8.1 SSW 9 17 5 9 1018.5 1018.3 0.0
19/01:30pm 20.5 16.1 2.8 31 8.3 SSE 15 24 8 13 1019.0 - 0.0
19/01:00pm 20.6 15.9 3.3 32 8.2 SSW 17 24 9 13 1019.5 1019.3 0.0
19/12:30pm 20.9 17.1 4.0 33 8.1 S 13 26 7 14 1020.0 - 0.0
19/12:00pm 20.1 15.9 3.8 34 7.8 SSW 15 24 8 13 1020.5 1020.3 0.0
19/11:30am 19.8 16.4 3.9 35 7.6 SSW 11 20 6 11 1020.9 - 0.0
19/11:00am 18.8 15.8 4.2 38 7.0 SSE 9 15 5 8 1021.2 1021.0 0.0
19/10:30am 18.6 16.0 6.1 44 6.2 ESE 9 15 5 8 1021.3 - 0.0
19/10:00am 17.5 15.0 6.4 48 5.5 SSE 9 15 5 8 1021.6 1021.4 0.0
19/09:30am 16.7 13.6 7.1 53 4.8 SSE 13 17 7 9 1021.7 - 0.0
19/09:00am 14.8 11.2 6.9 59 3.9 S 15 19 8 10 1021.5 1021.3 0.0
19/08:30am 14.3 10.9 7.8 65 3.2 S 15 19 8 10 1021.4 - 0.0
19/08:00am 11.9 9.4 8.2 78 1.8 SSW 11 13 6 7 1021.2 1021.0 0.0
19/07:30am 9.7 7.5 7.8 88 0.9 SSW 9 11 5 6 1021.0 - 0.0
19/07:00am 8.5 5.3 6.8 89 0.8 SSW 13 15 7 8 1020.6 1020.4 0.0
19/06:30am 9.0 5.8 7.0 87 0.9 SW 13 15 7 8 1020.5 - 0.0
19/06:00am 9.4 6.7 7.2 86 1.0 SW 11 13 6 7 1020.3 1020.1 0.0
19/05:30am 9.9 6.9 7.8 87 1.0 WSW 13 13 7 7 1020.0 - 0.0
19/05:00am 10.0 7.8 7.8 86 1.1 WSW 9 11 5 6 1019.9 1019.7 0.0
19/04:30am 11.0 8.6 8.6 85 1.2 SW 11 11 6 6 1019.7 - 0.0
19/04:00am 11.2 8.5 8.8 85 1.2 SW 13 15 7 8 1019.6 1019.4 0.0
19/03:30am 11.3 9.0 8.9 85 1.2 SW 11 13 6 7 1019.5 - 0.0
19/03:00am 12.1 9.9 9.5 84 1.3 WSW 11 13 6 7 1019.5 1019.3 0.0
19/02:30am 13.1 10.6 9.7 80 1.7 SSW 13 17 7 9 1019.5 - 0.0
19/02:00am 13.9 11.5 10.1 78 2.0 SSW 13 17 7 9 1019.7 1019.5 0.0
19/01:30am 14.1 11.5 10.7 80 1.8 SSW 15 17 8 9 1019.8 - 0.0
19/01:00am 13.5 11.3 10.7 83 1.5 SSW 13 13 7 7 1019.8 1019.6 0.0
19/12:30am 13.7 11.5 10.7 82 1.6 SSW 13 15 7 8 1019.8 - 0.0
19/12:00am 14.3 12.1 10.9 80 1.8 SW 13 15 7 8 1019.7 1019.5 0.0
 
Date/Time
EST
Temp
°C
App
Temp
°C
Dew
Point
Rel
Hum
%
Delta-T
°C
Wind Press
QNH
hPa
Press
MSL
hPa
Rain
since 9 am
mm
Dir
 
Spd
km/h
Gust
km/h
Spd
kts
Gust
kts
18/11:30pm 15.0 13.2 10.8 76 2.2 WSW 11 13 6 7 1019.6 - 0.0
18/11:00pm 15.9 13.5 11.3 74 2.5 SW 15 17 8 9 1019.6 1019.4 0.0
18/10:30pm 15.1 13.1 10.3 73 2.5 SW 11 13 6 7 1019.6 - 0.0
18/10:00pm 15.4 13.4 10.2 71 2.7 SW 11 13 6 7 1019.5 1019.3 0.0
18/09:30pm 15.8 13.4 10.1 69 3.0 SW 13 15 7 8 1019.3 - 0.0
18/09:00pm 16.0 13.9 9.9 67 3.2 SW 11 13 6 7 1019.1 1018.9 0.0
18/08:30pm 16.7 14.6 9.9 64 3.6 SW 11 13 6 7 1018.9 - 0.0
18/08:00pm 17.8 15.4 10.2 61 4.0 SW 13 15 7 8 1018.8 1018.6 0.0
18/07:30pm 18.6 16.2 10.2 58 4.5 SW 13 15 7 8 1018.5 - 0.0
18/07:00pm 19.5 17.1 10.2 55 5.0 SW 13 15 7 8 1018.3 1018.1 0.0
18/06:30pm 20.5 17.6 9.7 50 5.8 SW 15 19 8 10 1017.8 - 0.0
18/06:00pm 21.9 18.3 8.4 42 7.1 WSW 17 22 9 12 1017.5 1017.2 0.0
18/05:30pm 23.3 18.9 7.4 36 8.3 SW 20 32 11 17 1017.4 - 0.0
18/05:00pm 24.4 20.2 9.6 39 8.1 SW 22 33 12 18 1017.1 1016.8 0.0
18/04:30pm 25.1 19.7 8.1 34 9.1 WSW 26 39 14 21 1016.8 - 0.0
18/04:00pm 25.8 21.2 8.3 33 9.4 SW 22 33 12 18 1016.6 1016.3 0.0
18/03:30pm 26.0 19.6 8.5 33 9.5 SW 32 41 17 22 1016.5 - 0.0
18/03:00pm 25.4 20.2 8.8 35 9.0 SW 26 37 14 20 1016.4 1016.1 0.0
18/02:30pm 27.2 22.6 9.5 33 9.8 WSW 24 37 13 20 1016.4 - 0.0
18/02:00pm 27.3 22.6 9.2 32 10.0 W 24 37 13 20 1016.5 1016.2 0.0
18/01:30pm 27.0 22.0 8.0 30 10.3 W 24 33 13 18 1016.8 - 0.0
18/01:00pm 26.6 21.5 7.6 30 10.2 W 24 32 13 17 1017.3 1017.0 0.0
18/12:30pm 26.2 21.0 7.3 30 10.0 W 24 33 13 18 1018.0 - 0.0
18/12:00pm 26.3 20.9 7.8 31 9.9 WSW 26 33 14 18 1018.6 1018.4 0.0
18/11:30am 26.4 21.7 7.9 31 9.9 W 22 35 12 19 1018.8 - 0.0
18/11:00am 25.5 21.7 7.6 32 9.5 WNW 17 24 9 13 1019.0 1018.8 0.0
18/10:30am 24.4 20.3 8.0 35 8.7 WNW 19 26 10 14 1019.4 - 0.0
18/10:00am 24.1 20.0 7.7 35 8.7 WNW 19 26 10 14 1019.6 1019.4 0.0
18/09:30am 22.9 20.1 8.6 40 7.6 NW 13 17 7 9 1019.8 - 0.0
18/09:00am 21.6 18.8 8.5 43 6.9 NW 13 15 7 8 1019.9 1019.7 0.0
18/08:30am 19.8 17.6 9.4 51 5.5 NW 11 15 6 8 1019.9 - 0.0
18/08:00am 16.9 15.4 10.7 67 3.3 WNW 9 11 5 6 1019.7 1019.5 0.0
18/07:30am 13.8 11.7 9.6 76 2.2 NW 11 13 6 7 1019.6 - 0.0
18/07:00am 11.7 8.9 8.4 80 1.6 NW 13 13 7 7 1019.4 1019.2 0.0
18/06:30am 11.6 8.8 8.5 81 1.5 WNW 13 15 7 8 1019.3 - 0.0
18/06:00am 11.7 9.3 8.6 81 1.5 WNW 11 13 6 7 1019.2 1019.0 0.0
18/05:30am 11.7 8.9 8.4 80 1.6 WNW 13 13 7 7 1019.2 - 0.0
18/05:00am 11.9 9.1 8.6 80 1.6 WNW 13 15 7 8 1019.1 1018.9 0.0
18/04:30am 11.8 9.0 8.6 81 1.6 WNW 13 13 7 7 1019.0 - 0.0
18/04:00am 11.3 8.7 7.6 78 1.8 WNW 11 11 6 6 1018.8 1018.6 0.0
18/03:30am 12.1 9.6 8.2 77 1.9 WNW 11 13 6 7 1018.9 - 0.0
18/03:00am 12.4 9.9 8.1 75 2.1 WNW 11 13 6 7 1019.1 1018.9 0.0
18/02:30am 12.7 9.7 7.8 72 2.4 WNW 13 13 7 7 1019.1 - 0.0
18/02:00am 12.9 10.7 7.8 71 2.5 W 9 11 5 6 1019.3 1019.1 0.0
18/01:30am 13.5 11.4 8.1 70 2.7 W 9 11 5 6 1019.5 - 0.0
18/01:00am 13.3 11.6 8.4 72 2.4 W 7 9 4 5 1019.6 1019.4 0.0
18/12:30am 13.4 11.9 8.3 71 2.6 SSW 6 7 3 4 1019.8 - 0.0
18/12:00am 12.8 10.2 7.7 71 2.5 S 11 11 6 6 1020.0 1019.8 0.0
 
Date/Time
EST
Temp
°C
App
Temp
°C
Dew
Point
Rel
Hum
%
Delta-T
°C
Wind Press
QNH
hPa
Press
MSL
hPa
Rain
since 9 am
mm
Dir
 
Spd
km/h
Gust
km/h
Spd
kts
Gust
kts
17/11:30pm 13.1 11.0 8.2 72 2.4 SSE 9 11 5 6 1020.2 - 0.0
17/11:00pm 12.8 10.6 7.9 72 2.4 S 9 13 5 7 1020.5 1020.3 0.0
17/10:30pm 13.8 11.6 7.8 67 3.0 SW 9 9 5 5 1020.7 - 0.0
17/10:00pm 15.3 13.3 8.8 65 3.3 WSW 9 9 5 5 1020.7 1020.5 0.0
17/09:30pm 15.2 13.1 8.4 64 3.4 SW 9 11 5 6 1020.6 - 0.0
17/09:00pm 15.9 13.8 8.2 60 3.9 SSW 9 11 5 6 1020.5 1020.3 0.0
17/08:30pm 16.4 13.9 8.1 58 4.2 WSW 11 13 6 7 1020.2 - 0.0
17/08:00pm 16.9 14.7 7.8 55 4.6 WSW 9 11 5 6 1020.0 1019.8 0.0
17/07:30pm 17.6 15.3 7.6 52 5.1 SW 9 11 5 6 1019.7 - 0.0
17/07:00pm 17.8 16.0 7.0 49 5.4 SSW 6 7 3 4 1019.5 1019.3 0.0
17/06:30pm 19.8 17.3 6.5 42 6.7 SSW 9 9 5 5 1019.3 - 0.0
17/06:00pm 21.9 19.1 5.3 34 8.3 SSW 9 9 5 5 1019.1 1018.9 0.0
17/05:30pm 23.8 20.2 5.2 30 9.4 SSW 13 19 7 10 1019.0 - 0.0
17/05:00pm 24.7 21.0 4.5 27 10.1 SSW 13 19 7 10 1019.0 1018.8 0.0
17/04:30pm 24.9 20.0 4.1 26 10.4 S 19 22 10 12 1019.0 - 0.0
17/04:00pm 25.4 20.9 4.0 25 10.6 SW 17 24 9 13 1019.0 1018.8 0.0
17/03:30pm 25.4 20.9 4.0 25 10.7 SSW 17 24 9 13 1019.1 - 0.0
17/03:00pm 25.6 21.3 5.2 27 10.4 WSW 17 24 9 13 1019.2 1019.0 0.0
17/02:30pm 25.7 21.8 5.3 27 10.4 SW 15 24 8 13 1019.3 - 0.0
17/02:00pm 25.3 20.5 4.4 26 10.5 WSW 19 26 10 14 1019.5 1019.3 0.0
17/01:30pm 25.4 21.4 5.1 27 10.3 WSW 15 22 8 12 1019.8 - 0.0
17/01:00pm 24.4 21.4 4.2 27 10.0 WSW 9 19 5 10 1020.1 1019.9 0.0
17/12:30pm 24.4 21.1 4.7 28 9.9 WSW 11 20 6 11 1020.5 - 0.0
17/12:00pm 24.2 21.6 6.0 31 9.3 W 9 19 5 10 1020.9 1020.7 0.0
17/11:30am 23.7 20.6 5.6 31 9.2 SW 11 17 6 9 1021.4 - 0.0
17/11:00am 23.3 19.9 5.7 32 8.9 S 13 17 7 9 1021.4 1021.2 0.0
17/10:30am 22.6 19.5 7.2 37 8.0 S 13 19 7 10 1021.6 - 0.0
17/10:00am 21.4 19.5 9.0 45 6.6 S 9 11 5 6 1021.7 1021.5 0.0
17/09:30am 19.7 18.5 9.6 52 5.4 SW 6 9 3 5 1021.7 - 0.0
17/09:00am 17.5 16.3 10.4 63 3.8 WSW 7 9 4 5 1021.6 1021.4 0.0
17/08:30am 15.6 13.9 9.7 68 3.1 SW 9 11 5 6 1021.5 - 0.0
17/08:00am 14.1 12.6 9.3 73 2.5 WSW 7 9 4 5 1021.2 1021.0 0.0
17/07:30am 11.9 10.0 8.9 82 1.5 W 9 11 5 6 1020.9 - 0.0
17/07:00am 9.9 7.7 7.8 87 1.0 W 9 9 5 5 1020.5 1020.3 0.0
17/06:30am 10.3 8.1 7.9 85 1.2 WSW 9 11 5 6 1020.2 - 0.0
17/06:00am 10.3 7.7 7.9 85 1.2 W 11 13 6 7 1019.9 1019.7 0.0
17/05:30am 10.8 8.0 8.4 85 1.2 W 13 15 7 8 1019.6 - 0.0
17/05:00am 11.0 8.2 8.4 84 1.3 W 13 13 7 7 1019.3 1019.1 0.0
17/04:30am 11.1 8.2 8.3 83 1.4 W 13 15 7 8 1019.2 - 0.0
17/04:00am 11.1 8.6 8.3 83 1.4 WSW 11 13 6 7 1019.0 1018.8 0.0
17/03:30am 11.1 9.1 8.5 84 1.3 WSW 9 11 5 6 1019.0 - 0.0
17/03:00am 11.8 9.4 8.5 80 1.6 WSW 11 13 6 7 1019.0 1018.8 0.0
17/02:30am 10.7 9.6 8.3 85 1.2 SW 4 9 2 5 1019.1 - 0.0
17/02:00am 10.8 10.4 8.2 84 1.3 CALM 0 0 0 0 1019.3 1019.1 0.0
17/01:30am 11.4 11.1 8.6 83 1.4 CALM 0 0 0 0 1019.5 - 0.0
17/01:00am 11.5 11.1 8.2 80 1.6 CALM 0 0 0 0 1019.7 1019.5 0.0
17/12:30am 11.5 11.1 8.2 80 1.6 CALM 0 4 0 2 1019.6 - 0.0
17/12:00am 11.9 10.1 7.8 76 2.0 S 7 9 4 5 1020.0 1019.8 0.0
 
Date/Time
EST
Temp
°C
App
Temp
°C
Dew
Point
Rel
Hum
%
Delta-T
°C
Wind Press
QNH
hPa
Press
MSL
hPa
Rain
since 9 am
mm
Dir
 
Spd
km/h
Gust
km/h
Spd
kts
Gust
kts
16/11:30pm 13.3 11.2 8.2 71 2.5 SW 9 11 5 6 1020.2 - 0.0
16/11:00pm 13.7 12.0 8.5 71 2.6 SSW 7 9 4 5 1020.1 1019.9 0.0
16/10:30pm 14.2 11.8 8.8 70 2.7 SSW 11 11 6 6 1020.1 - 0.0
16/10:00pm 15.0 13.0 8.7 66 3.2 SSW 9 11 5 6 1020.1 1019.9 0.0
16/09:30pm 15.0 12.8 7.8 62 3.6 SSW 9 11 5 6 1020.0 - 0.0
16/09:00pm 15.9 13.3 7.7 58 4.1 S 11 13 6 7 1019.8 1019.6 0.0
16/08:30pm 16.7 14.1 7.6 55 4.6 S 11 13 6 7 1019.5 - 0.0
16/08:00pm 17.1 14.1 7.5 53 4.8 S 13 15 7 8 1019.3 1019.1 0.0
16/07:30pm 17.2 14.5 7.5 53 4.9 S 11 13 6 7 1018.8 - 0.0
16/07:00pm 17.6 15.0 7.6 52 5.1 S 11 13 6 7 1018.7 1018.5 0.0
16/06:30pm 18.7 16.0 7.5 48 5.7 SSW 11 13 6 7 1018.5 - 0.0

Other Formats:

Comma delimited format used in spreadsheet applications
http://www.bom.gov.au/fwo/IDN60801/IDN60801.95695.axf

JavaScript Object Notation format (JSON) in row-major order
http://www.bom.gov.au/fwo/IDN60801/IDN60801.95695.json